Find Starlink 31804

NORAD ID: 59641 Int'l Des: 2024-082 Owner: SPXS Country: US Constellation: starlink operational
LEOCIRCULAR

Current View

Loading 3D Globe...

About Starlink 31804

Starlink 31804 (NORAD 59641) is a starlink constellation satellite (v2 mini) launched May 3, 2024 by SPXS of US. It operates in LEO, CIRCULAR orbit with a mass of 730.00 kg.

Upcoming Passes

Passes for default location (London). Set your location on the main map for personalized predictions.

Altitude History

Loading altitude history...

Two-Line Element Set

1 59641U 24082L 26255.09604159 .00000001 00000-0 95620-5 0 9993
2 59641 43.0022 166.8035 0001164 270.9930 89.0788 15.27576858133325
Epoch: Sep 12, 2026 • Age: 24 hours

Current Status

Altitude 486.9 km
Apogee / Perigee N/A
Velocity 7.63 km/s
Sub-Earth Point 42.80°N, 125.79°W
Launch Date May 3, 2024
Age 2.3 years
Type internet

Technical Details

Classification Payload
Mass 730.00 kg
Dry Mass 700.00 kg
Total Mass 730.00 kg
Length 0.30 m
Diameter 4.10 m
Span 29.00 m
Shape Box + pan
Manufacturer SPXS
Bus Type Starlink V2M
Phase Status In Orbit
Owner/State SPXS/US

Most Searched